Location: Audruicq
(50.8780°N, 2.0797°E)
Time: 11:20:30
(UTC+00:00)

BREEZE-M DEB - Pass Details

Date: 15 May 2026
Orbit: 819 x 34897 km, 45.0° (Epoch: 6 June)

Event Time Altitude Azimuth Distance (km) Brightness Sun altitude
Rises 22:30:32 0° 245° (WSW) 3,340 6.8 -18.0°
Reaches altitude 10° 22:32:25 10° 239° (WSW) 2,456 6.0 -18.1°
Maximum altitude 22:36:55 52° 162° (SSE) 1,419 4.4 -18.3°
Drops below altitude 10° 22:48:38 10° 89° (E) 6,187 8.0 -18.9°
Sets 22:57:56 0° 87° (E) 9,934 9.1 -19.2°
